TimePST,TemperatureF,Dew PointF,Humidity,Sea Level PressureIn,VisibilityMPH,Wind Direction,Wind SpeedMPH,Gust SpeedMPH,PrecipitationIn,Events,Conditions,WindDirDegrees,DateUTC
12:53 AM,35.1,32.0,89,29.80,5.0,WSW,8.1,-,0.05,Snow,Light Snow,250,2013-03-06 08:53:00
1:53 AM,35.1,32.0,89,29.78,5.0,WSW,8.1,-,0.03,Rain,Light Rain,250,2013-03-06 09:53:00
2:53 AM,35.1,32.0,89,29.74,5.0,WSW,6.9,-,0.05,Rain,Light Rain,250,2013-03-06 10:53:00
3:53 AM,35.1,32.0,89,29.71,10.0,WSW,8.1,46.0,0.01,Rain,Light Rain,250,2013-03-06 11:53:00
4:53 AM,35.1,32.0,89,29.69,9.0,WSW,6.9,-,0.03,Rain,Light Rain,250,2013-03-06 12:53:00
5:53 AM,35.1,32.0,89,29.67,8.0,WSW,6.9,-,0.02,Rain,Light Rain,250,2013-03-06 13:53:00
6:53 AM,35.1,32.0,89,29.66,9.0,WSW,9.2,-,0.05,Rain,Light Rain,250,2013-03-06 14:53:00
7:53 AM,35.1,32.0,89,29.65,4.0,WSW,8.1,-,0.03,Snow,Light Snow,250,2013-03-06 15:53:00
8:10 AM,35.6,32.0,87,29.62,6.0,West,8.1,-,0.01,Rain,Light Rain,260,2013-03-06 16:10:00
8:53 AM,36.0,33.1,89,29.64,10.0,West,6.9,-,0.01,Rain,Light Rain,260,2013-03-06 16:53:00
9:53 AM,36.0,33.1,89,29.64,8.0,WSW,9.2,-,0.03,Rain,Light Rain,250,2013-03-06 17:53:00
10:17 AM,37.4,33.8,87,29.61,4.0,WSW,5.8,-,0.01,Rain,Light Rain,250,2013-03-06 18:17:00
10:31 AM,37.4,33.8,87,29.62,6.0,WSW,8.1,-,0.03,Rain,Light Rain,250,2013-03-06 18:31:00
10:53 AM,39.0,35.1,86,29.64,10.0,West,6.9,-,0.03,Rain,Light Rain,270,2013-03-06 18:53:00
11:14 AM,39.2,35.6,87,29.62,10.0,WNW,5.8,-,0.01,,Overcast,290,2013-03-06 19:14:00
11:50 AM,39.2,35.6,87,29.62,10.0,WSW,6.9,-,0.01,Rain,Light Rain,240,2013-03-06 19:50:00
11:53 AM,39.0,36.0,89,29.65,10.0,WSW,8.1,-,0.01,Rain,Light Rain,250,2013-03-06 19:53:00
12:53 PM,39.9,36.0,86,29.66,10.0,WSW,6.9,-,0.00,Rain,Light Rain,250,2013-03-06 20:53:00
1:14 PM,39.2,35.6,87,29.64,4.0,WSW,5.8,-,0.02,Rain,Light Rain,240,2013-03-06 21:14:00
1:53 PM,39.9,35.1,83,29.67,7.0,WSW,4.6,-,0.06,Rain,Light Rain,240,2013-03-06 21:53:00
2:25 PM,41.0,35.6,81,29.64,10.0,Calm,Calm,-,0.01,Rain,Light Rain,0,2013-03-06 22:25:00
2:33 PM,41.0,35.6,81,29.65,10.0,Calm,Calm,-,0.01,Rain,Light Rain,0,2013-03-06 22:33:00
2:53 PM,41.0,36.0,82,29.68,10.0,Calm,Calm,-,0.01,Rain,Light Rain,0,2013-03-06 22:53:00
3:53 PM,41.0,36.0,82,29.69,10.0,Calm,Calm,-,0.00,Rain,Light Rain,0,2013-03-06 23:53:00
4:00 PM,42.8,35.6,76,29.67,10.0,Calm,Calm,-,0.00,Rain,Light Rain,0,2013-03-07 00:00:00
4:53 PM,42.1,36.0,79,29.71,10.0,Calm,Calm,-,0.00,,Overcast,0,2013-03-07 00:53:00
5:43 PM,42.8,35.6,76,29.70,10.0,Calm,Calm,-,N/A,,Mostly Cloudy,0,2013-03-07 01:43:00
5:53 PM,41.0,36.0,82,29.73,10.0,Calm,Calm,-,N/A,,Mostly Cloudy,0,2013-03-07 01:53:00
6:53 PM,39.9,36.0,86,29.76,10.0,Calm,Calm,-,N/A,,Overcast,0,2013-03-07 02:53:00
7:53 PM,39.0,36.0,89,29.78,9.0,Calm,Calm,-,N/A,,Overcast,0,2013-03-07 03:53:00
8:53 PM,37.9,35.1,89,29.81,10.0,West,3.5,-,N/A,,Overcast,260,2013-03-07 04:53:00
9:53 PM,37.0,34.0,89,29.84,10.0,Calm,Calm,-,N/A,,Mostly Cloudy,0,2013-03-07 05:53:00
10:53 PM,37.0,33.1,86,29.86,10.0,Calm,Calm,-,N/A,,Overcast,0,2013-03-07 06:53:00
11:53 PM,36.0,33.1,89,29.89,9.0,WSW,4.6,-,N/A,,Overcast,250,2013-03-07 07:53:00